ALTYAZILAR //
Toplam 1621 sonuç bulundu.
YAPIM YIL DİL ÇEVİRMEN FORMAT FPS İNDİRİLME YÜKLEYEN TARİH
30 Rock S:4,B:Paket 2006 Altyazı Paketi SubRip 23.976 6 ADG 05-02-2018
30 Rock S:6,B:01~16 2006 catastrop SubRip 23.976 9 ADG 05-02-2018
30 Rock S:6,B:Paket 2006 Altyazı Paketi SubRip 23.976 35 ADG 05-02-2018
30 Rock S:7,B:Paket 2006 Altyazı Paketi SubRip 23.976 38 ADG 05-02-2018
Black Sails S:4,B:Paket 2014 Altyazı Paketi SubRip 23.976 1910 ADG 04-02-2018
Black Sails S:4,B:Paket 2014 Altyazı Paketi SubRip 23.976 1997 ADG 04-02-2018
9 Ends 2 Out S:1,B:Paket 2007 Fansub SubRip 29.97 2 ADG 03-02-2018
9 Ends 2 Out S:1,B:Paket 2007 roxas & mercy SubRip 29.97 3 ADG 03-02-2018
3rd Rock from the Sun S:2,B:Paket 1996 TV-Rip SubRip 23.976 11 ADG 03-02-2018
1% eo-ddeon keot S:1,B:Paket 2003 Fansub SubRip 29.97 1 ADG 03-02-2018
1% eo-ddeon keot S:1,B:Paket 2003 nynawea SubRip 29.97 8 ADG 03-02-2018
Asatte no hôkô. S:1,B:Paket 2006 ClauseOver & Sezerkcn SubstationAlfa 23.976 21 ADG 03-02-2018
Urutora Maniakku S:1,B:Paket 2003 VarOlanBiri SubRip 23.976 14 ADG 03-02-2018
Lord Marksman and Vanadis S:1,B:01, 02, 03, 04, 05, 06, 07, 08, 09, 10 2014 Libert8 & Aria SubstationAlfa 23.976 14 ADG 03-02-2018
Lord Marksman and Vanadis S:1,B:Paket 2014 Libert8 & Aria SubstationAlfa 23.976 64 ADG 03-02-2018
Hannibal S:2,B:Paket 2013 Ozzie SubRip 23.976 74 ADG 02-02-2018
Hannibal S:1,B:Paket 2013 eyldz & LoneStar & Ozzie SubRip 23.976 112 ADG 02-02-2018
Zetsuen No Tempest S:1,B:Paket 2012 4sprz SubRip 23.976 154 ADG 02-02-2018
À bout de souffle 1960 darko SubRip 23.976 15 ADG 02-02-2018
À bout de souffle 1960 DVD-Rip MicroDVD 29.97 4 ADG 02-02-2018
À bout de souffle 1960 DVD-Rip SubRip 25 1 ADG 02-02-2018
A Beautiful Mind 2001 DVD-Rip MicroDVD 23.976 17 ADG 02-02-2018
A Beautiful Mind 2001 DVD-Rip SubRip 25 4 ADG 02-02-2018
A Black Reflection 2015 ssniper SubRip 25 1 ADG 02-02-2018
Feed the Beast S:1,B:Paket 2016 Altyazı Paketi SubRip 23.976 25 ADG 31-01-2018
Supernatural: The Animation S:1,B:Paket 2011 Aequitas SubRip 23.976 7 ADG 31-01-2018
Vice Principals S:1,B:Paket 2016 Altyazı Paketi SubRip 23.976 322 ADG 30-01-2018
Birdsong S:1,B:Paket 2012 TV-Rip SubRip 23.976 1 ADG 30-01-2018
Bob's Burgers S:7,B:Paket 2011 TV-Rip SubRip 23.976 1 ADG 29-01-2018
Bob's Burgers S:7,B:Paket 2011 TV-Rip SubRip 23.976 1 ADG 29-01-2018
Bob's Burgers S:6,B:Paket 2011 TV-Rip SubRip 23.976 15 ADG 29-01-2018
Bob's Burgers S:6,B:Paket 2011 TV-Rip SubRip 23.976 1 ADG 29-01-2018
Bob's Burgers S:5,B:Paket 2011 TV-Rip SubRip 23.976 2 ADG 29-01-2018
Bob's Burgers S:5,B:Paket 2011 TV-Rip SubRip 23.976 8 ADG 29-01-2018
Bob's Burgers S:5,B:Paket 2011 TV-Rip SubRip 23.976 1 ADG 29-01-2018
Bob's Burgers S:4,B:Paket 2011 TV-Rip SubRip 23.976 1 ADG 29-01-2018
Bob's Burgers S:3,B:Paket 2011 TV-Rip SubRip 23.976 2 ADG 29-01-2018
Bob's Burgers S:2,B:Paket 2011 TV-Rip SubRip 23.976 1 ADG 29-01-2018
Bob's Burgers S:1,B:Paket 2011 DVD-Rip SubRip 23.976 3 ADG 29-01-2018
E mo zai shen bian S:1,B:01~10 2005 Altyazı Paketi SubRip 29.97 1 ADG 26-01-2018
Nezumi, Edo wo hashiru S:1,B:01, 02, 03 2014 Mirune SubRip 23.976 2 ADG 26-01-2018
Akuryô byôtô S:1,B:Paket 2013 Mirune SubRip 29.97 3 ADG 26-01-2018
Tokyo Bandwagon S:1,B:Paket 2013 Mirune & Janoomma & FatimaMinah SubRip 29.97 1 ADG 26-01-2018
Avengers Assemble S:4,B:Paket 2013 TV-Rip SubRip 23.976 18 ADG 25-01-2018
Avengers Assemble S:4,B:Özel Bölüm 2013 TV-Rip SubRip 23.976 6 ADG 25-01-2018
Avengers Assemble S:3,B:Paket 2013 rexothek SubRip 23.976 88 ADG 25-01-2018
Avengers Assemble S:3,B:Paket 2013 TV-Rip SubRip 23.976 3 ADG 25-01-2018
Marvel Disk Wars: The Avengers S:1,B:01, 02, 03 2014 Ozanca SubRip 23.976 7 ADG 25-01-2018
Marvel Disk Wars: The Avengers S:1,B:Paket 2014 Fansub SubRip 23.976 1 ADG 25-01-2018
BrainDead S:1,B:Paket 2016 Altyazı Paketi SubRip 23.976 374 ADG 25-01-2018
Wet Hot American Summer: First Day of Camp S:1,B:Paket 2015 Sacrer SubRip 23.976 47 ADG 24-01-2018
My Princess S:1,B:Paket 2011 selsi SubRip 29.97 5 ADG 23-01-2018
Minami Shineyo S:1,B:Paket 2009 selsi & YOSEİ SubRip 29.97 3 ADG 22-01-2018
Minami Shineyo S:1,B:Paket 2009 selsi & YOSEİ SubRip 23.976 1 ADG 22-01-2018
Naruto Shippuuden S:8,B:Paket 2007 Altyazı Paketi SubRip 23.976 446 ADG 22-01-2018
Naruto Shippuuden S:7,B:Paket 2007 ilyas_247 & Toofun SubRip 23.976 709 ADG 22-01-2018
Naruto Shippuuden S:6,B:Paket 2007 Altyazı Paketi SubRip 23.976 696 ADG 22-01-2018
Naruto Shippuuden S:5,B:Paket 2007 Altyazı Paketi SubRip 23.976 138 ADG 22-01-2018
Naruto Shippuuden S:5,B:Paket 2007 Altyazı Paketi SubRip 23.976 814 ADG 22-01-2018
Apple Tree Yard S:1,B:Paket 2017 Gökhan Ergüven & Oyku_Ozkan SubRip 23.976 129 ADG 21-01-2018
Naruto Shippuuden S:4,B:78~90 2007 Magic_Lord & ilyas_247 SubRip 23.976 49 ADG 14-01-2018
Naruto Shippuuden S:4,B:Paket 2007 Magic_Lord & ilyas_247 SubRip 23.976 76 ADG 14-01-2018
Naruto Shippuuden S:4,B:Paket 2007 Magic_Lord & ilyas_247 SubRip 23.976 549 ADG 14-01-2018
Naruto Shippuuden S:3,B:Paket 2007 Magic_Lord & lacrimaer & Discordia SubRip 23.976 176 ADG 14-01-2018
Naruto Shippuuden S:2,B:Paket 2007 lacrimaer & Jumanjinho SubRip 23.976 152 ADG 14-01-2018
Naruto Shippuuden S:1,B:Paket 2007 Altyazı Paketi SubRip 23.976 45 ADG 14-01-2018
Naruto Shippuuden S:14,B:Paket 2007 eray.gns SubRip 23.976 198 ADG 11-01-2018
Naruto Shippuuden S:13,B:Paket 2007 eray.gns SubRip 23.976 218 ADG 11-01-2018
Naruto Shippuuden S:9,B:Paket 2007 Altyazı Paketi SubRip 23.976 125 ADG 11-01-2018
Naruto Shippuuden S:12,B:Paket 2007 eray.gns SubstationAlfa 23.976 193 ADG 11-01-2018
Naruto Shippuuden S:12,B:245~248 2007 wiNdyjolt SubRip 23.976 26 ADG 11-01-2018
Naruto Shippuuden S:11,B:Paket 2007 Altyazı Paketi SubRip 23.976 167 ADG 11-01-2018
Naruto Shippuuden S:10,B:Paket 2007 Altyazı Paketi SubRip 23.976 1285 ADG 11-01-2018
Naruto Shippuuden S:15,B:Paket 2007 eray.gns SubRip 23.976 984 ADG 11-01-2018
The Affair S:3,B:Paket 2014 barbarella & john gage SubRip 23.976 258 ADG 09-01-2018
The Bletchley Circle S:2,B:Paket 2012 TV-Rip SubRip 25 10 ADG 09-01-2018
The Bletchley Circle S:1,B:Paket 2012 barbarella SubRip 25 27 ADG 09-01-2018
The Bletchley Circle S:1,B:Paket 2012 barbarella SubRip 25 7 ADG 09-01-2018
Quirke S:1,B:Paket 2013 TV-Rip SubRip 25 3 ADG 02-01-2018
Cold Case S:4,B:Paket 2003 Altyazı Paketi SubRip 23.976 97 ADG 01-01-2018
By Any Means S:1,B:01~05 2013 engin sokullu SubRip 25 5 ADG 30-12-2017
By Any Means S:1,B:Paket 2013 TV-Rip SubRip 25 3 ADG 30-12-2017
Maho Shojo Madoka Magica S:1,B:01~08 2011 DP Otaku Aktivite SubRip 23.976 22 ADG 30-12-2017
Tenkû no Esukafurône S:1,B:Paket 1996 DP Bonus An. Ç.T. & kristin kreuk & luffydesper SubRip 23.976 22 ADG 30-12-2017
Nikita S:4,B:Paket 2010 HaDeS88 & rapley SubRip 23.976 5 ADG 27-12-2017
Nikita S:3,B:Paket 2010 rapley SubRip 23.976 7 ADG 27-12-2017
Nikita S:2,B:Paket 2010 HaDeS88 SubRip 23.976 12 ADG 27-12-2017
Star Trek: Deep Space Nine S:5,B:01~09 1993 Altyazı Paketi SubRip 23.976 21 ADG 23-12-2017
Star Trek: Deep Space Nine S:4,B:Paket 1993 Altyazı Paketi SubRip 23.976 75 ADG 23-12-2017
Star Trek: Deep Space Nine S:3,B:Paket 1993 elektor SubRip 23.976 92 ADG 23-12-2017
Star Trek: Deep Space Nine S:2,B:Paket 1993 elektor & jazzbaro & cocovacirvacir SubRip 23.976 90 ADG 23-12-2017
Cheongchunsidae S:1,B:Paket 2016 mari_kim SubRip 29.97 1 ADG 23-12-2017
Common Ground S:1,B:01~06 2013 TV-Rip SubRip 25 1 ADG 22-12-2017
Common Ground S:1,B:01, 02, 03 2013 dejavu2008 SubRip 25 1 ADG 22-12-2017
Bluestone 42 S:2,B:Paket 2013 TV-Rip SubRip 25 3 ADG 22-12-2017
Bluestone 42 S:3,B:Paket 2013 DVD-Rip SubRip 25 2 ADG 22-12-2017
The Musketeers S:3,B:Paket 2014 Altyazı Paketi SubRip 25 171 ADG 22-12-2017
The Musketeers S:2,B:Paket 2014 Sacrer SubRip 25 7 ADG 22-12-2017
The Musketeers S:1,B:Paket 2014 Sacrer SubRip 25 6 ADG 22-12-2017
The Crimson Field S:1,B:Paket 2014 DVD-Rip SubRip 25 1 ADG 22-12-2017
Toplam 1621 sonuç bulundu.